,,PA_Meas_PMT16A,,PR_Meas_QMR101_102,,RH_Meas_QMH101,,SR_Meas_QMS101,,TA_Meas_QMH101,,GenWind,,GenWind,
time,status,PA,status,PR,status,RH,status,SR,status,TA,status,DirAvg,status,SpdAvg,
2012-04-26, 00:00:04,VALID,918.549,VALID,0,VALID,96.6344,VALID,0,VALID,21.4924,VALID,114,VALID,1.29141,
2012-04-26, 00:01:04,VALID,918.52,VALID,0,VALID,96.6649,VALID,0,VALID,21.4746,VALID,115,VALID,0.867188,
2012-04-26, 00:02:04,VALID,918.519,VALID,0,VALID,96.6954,VALID,0,VALID,21.4746,VALID,114,VALID,0.973437,
2012-04-26, 00:03:04,VALID,918.487,VALID,0,VALID,96.7411,VALID,0,VALID,21.4957,VALID,115,VALID,0.726172,
2012-04-26, 00:04:04,VALID,918.515,VALID,0,VALID,96.7869,VALID,0,VALID,21.4746,VALID,115,VALID,0.566016,
2012-04-26, 00:05:04,VALID,918.526,VALID,0,VALID,96.7945,VALID,0,VALID,21.5152,VALID,114,VALID,0.476172,
2012-04-26, 00:06:04,VALID,918.497,VALID,0,VALID,96.764,VALID,0,VALID,21.4746,VALID,114,VALID,0.978906,
2012-04-26, 00:07:04,VALID,918.479,VALID,0,VALID,96.7945,VALID,0,VALID,21.455,VALID,114,VALID,0.717578,
2012-04-26, 00:08:04,VALID,918.46,VALID,0.2,VALID,96.825,VALID,0,VALID,21.455,VALID,114,VALID,0.367969,
2012-04-26, 00:09:04,VALID,918.482,VALID,0,VALID,96.8326,VALID,0,VALID,21.4762,VALID,114,VALID,0.439063,
2012-04-26, 00:10:04,VALID,918.484,VALID,0,VALID,96.825,VALID,0,VALID,21.455,VALID,115,VALID,0.0679687,
2012-04-26, 00:11:04,VALID,918.478,VALID,0,VALID,96.8403,VALID,0,VALID,21.4762,VALID,114,VALID,0.890234,
2012-04-26, 00:12:04,VALID,918.457,VALID,0,VALID,96.8326,VALID,0,VALID,21.455,VALID,114,VALID,0.128516,
2012-04-26, 00:13:04,VALID,918.457,VALID,0,VALID,96.8555,VALID,0,VALID,21.455,VALID,114,VALID,0,
2012-04-26, 00:14:04,VALID,918.456,VALID,0,VALID,96.8631,VALID,0,VALID,21.5152,VALID,114,VALID,0,
2012-04-26, 00:15:04,VALID,918.465,VALID,0,VALID,96.8784,VALID,0,VALID,21.4941,VALID,115,VALID,0.264844,
2012-04-26, 00:16:04,VALID,918.433,VALID,0,VALID,96.886,VALID,0,VALID,21.4746,VALID,115,VALID,0.276953,
2012-04-26, 00:17:04,VALID,918.461,VALID,0,VALID,96.8784,VALID,0,VALID,21.4957,VALID,115,VALID,0.107422,
2012-04-26, 00:18:04,VALID,918.427,VALID,0,VALID,96.8555,VALID,0,VALID,21.4957,VALID,114,VALID,0,
2012-04-26, 00:19:04,VALID,918.424,VALID,0,VALID,96.8555,VALID,0,VALID,21.4957,VALID,115,VALID,0,
2012-04-26, 00:20:04,VALID,918.396,VALID,0,VALID,96.8479,VALID,0,VALID,21.5152,VALID,114,VALID,0,
2012-04-26, 00:21:04,VALID,918.367,VALID,0,VALID,96.8631,VALID,0,VALID,21.4957,VALID,114,VALID,0,
2012-04-26, 00:22:04,VALID,918.355,VALID,0,VALID,96.8784,VALID,0,VALID,21.4941,VALID,114,VALID,0.384766,
2012-04-26, 00:23:04,VALID,918.306,VALID,0,VALID,96.8936,VALID,0,VALID,21.4957,VALID,114,VALID,0.00625,
2012-04-26, 00:24:04,VALID,918.277,VALID,0,VALID,96.886,VALID,0,VALID,21.5347,VALID,114,VALID,0.219141,
2012-04-26, 00:25:04,VALID,918.247,VALID,0,VALID,96.886,VALID,0,VALID,21.5347,VALID,114,VALID,0,
2012-04-26, 00:26:04,VALID,918.24,VALID,0,VALID,96.9012,VALID,0,VALID,21.5331,VALID,114,VALID,0,
2012-04-26, 00:27:04,VALID,918.199,VALID,0,VALID,96.9012,VALID,0,VALID,21.5737,VALID,114,VALID,0,
2012-04-26, 00:28:04,VALID,918.186,VALID,0,VALID,96.9012,VALID,0,VALID,21.5737,VALID,114,VALID,0,
2012-04-26, 00:29:04,VALID,918.181,VALID,0,VALID,96.9012,VALID,0,VALID,21.5737,VALID,114,VALID,0,
2012-04-26, 00:30:04,VALID,918.158,VALID,0,VALID,96.8936,VALID,0,VALID,21.5737,VALID,114,VALID,0,
2012-04-26, 00:31:04,VALID,918.166,VALID,0,VALID,96.886,VALID,0,VALID,21.5136,VALID,114,VALID,0,
2012-04-26, 00:32:04,VALID,918.165,VALID,0,VALID,96.9012,VALID,0,VALID,21.5152,VALID,114,VALID,0,
2012-04-26, 00:33:04,VALID,918.131,VALID,0,VALID,96.8936,VALID,0,VALID,21.4746,VALID,114,VALID,0,
2012-04-26, 00:34:04,VALID,918.148,VALID,0,VALID,96.9012,VALID,0,VALID,21.4762,VALID,114,VALID,0,
2012-04-26, 00:35:04,VALID,918.144,VALID,0,VALID,96.8555,VALID,0,VALID,21.4372,VALID,114,VALID,0,
2012-04-26, 00:36:04,VALID,918.126,VALID,0,VALID,96.8631,VALID,0,VALID,21.4372,VALID,114,VALID,0,
2012-04-26, 00:37:04,VALID,918.103,VALID,0,VALID,96.8631,VALID,0,VALID,21.4177,VALID,114,VALID,0,
2012-04-26, 00:38:04,VALID,918.105,VALID,0,VALID,96.8784,VALID,0,VALID,21.4177,VALID,114,VALID,0,
2012-04-26, 00:39:04,VALID,918.073,VALID,0,VALID,96.9012,VALID,0,VALID,21.4372,VALID,114,VALID,0,
2012-04-26, 00:40:04,VALID,918.047,VALID,0,VALID,96.9241,VALID,0,VALID,21.4957,VALID,114,VALID,0,
2012-04-26, 00:41:04,VALID,918.03,VALID,0,VALID,96.9089,VALID,0,VALID,21.5152,VALID,114,VALID,0,
2012-04-26, 00:42:04,VALID,918.032,VALID,0.2,VALID,96.9546,VALID,0,VALID,21.4746,VALID,114,VALID,0,
2012-04-26, 00:43:04,VALID,918.025,VALID,0,VALID,96.947,VALID,0,VALID,21.4762,VALID,114,VALID,0,
2012-04-26, 00:44:04,VALID,917.979,VALID,0,VALID,96.9394,VALID,0,VALID,21.4567,VALID,114,VALID,0.133984,
2012-04-26, 00:45:04,VALID,917.996,VALID,0,VALID,96.9165,VALID,0,VALID,21.4372,VALID,114,VALID,0.430859,
2012-04-26, 00:46:04,VALID,917.976,VALID,0,VALID,96.9241,VALID,0,VALID,21.4567,VALID,114,VALID,0,
2012-04-26, 00:47:04,VALID,917.991,VALID,0,VALID,96.9089,VALID,0,VALID,21.4177,VALID,114,VALID,0,
2012-04-26, 00:48:04,VALID,917.991,VALID,0,VALID,96.9089,VALID,0,VALID,21.4177,VALID,114,VALID,0,
2012-04-26, 00:49:04,VALID,917.997,VALID,0,VALID,96.8707,VALID,0,VALID,21.3965,VALID,114,VALID,0.772656,
2012-04-26, 00:50:04,VALID,917.998,VALID,0,VALID,96.8784,VALID,0,VALID,21.4177,VALID,80,VALID,0.991016,
2012-04-26, 00:51:04,VALID,917.978,VALID,0,VALID,96.8631,VALID,0,VALID,21.416,VALID,80,VALID,0.697266,
2012-04-26, 00:52:04,VALID,918.012,VALID,0,VALID,96.8403,VALID,0,VALID,21.4372,VALID,80,VALID,0.5125,
2012-04-26, 00:53:04,VALID,917.972,VALID,0,VALID,96.8555,VALID,0,VALID,21.4355,VALID,80,VALID,0.396094,
2012-04-26, 00:54:04,VALID,918.03,VALID,0,VALID,96.8479,VALID,0,VALID,21.4355,VALID,80,VALID,0.229687,
2012-04-26, 00:55:04,VALID,918.025,VALID,0,VALID,96.8555,VALID,0,VALID,21.4355,VALID,80,VALID,0.283984,
2012-04-26, 00:56:04,VALID,918.05,VALID,0,VALID,96.8479,VALID,0,VALID,21.455,VALID,80,VALID,0.0878906,
2012-04-26, 00:57:04,VALID,918.073,VALID,0,VALID,96.8707,VALID,0,VALID,21.4746,VALID,80,VALID,0,
2012-04-26, 00:58:04,VALID,918.087,VALID,0,VALID,96.886,VALID,0,VALID,21.4924,VALID,80,VALID,0,
2012-04-26, 00:59:04,VALID,918.111,VALID,0,VALID,96.9089,VALID,0,VALID,21.5331,VALID,80,VALID,0,
2012-04-26, 01:00:04,VALID,918.133,VALID,0,VALID,96.9089,VALID,0,VALID,21.5136,VALID,80,VALID,0,
2012-04-26, 01:01:04,VALID,918.123,VALID,0,VALID,96.9012,VALID,0,VALID,21.5136,VALID,80,VALID,0,
2012-04-26, 01:02:04,VALID,918.123,VALID,0,VALID,96.8936,VALID,0,VALID,21.5526,VALID,80,VALID,0,
2012-04-26, 01:03:04,VALID,918.128,VALID,0,VALID,96.9089,VALID,0,VALID,21.5916,VALID,80,VALID,0,
2012-04-26, 01:04:04,VALID,918.117,VALID,0,VALID,96.8936,VALID,0,VALID,21.5705,VALID,80,VALID,0,
2012-04-26, 01:05:04,VALID,918.118,VALID,0,VALID,96.8631,VALID,0,VALID,21.5721,VALID,80,VALID,0,
2012-04-26, 01:06:04,VALID,918.093,VALID,0,VALID,96.8403,VALID,0,VALID,21.5331,VALID,80,VALID,0,
2012-04-26, 01:07:04,VALID,918.093,VALID,0,VALID,96.8479,VALID,0,VALID,21.5916,VALID,80,VALID,0,
2012-04-26, 01:08:04,VALID,918.079,VALID,0,VALID,96.8784,VALID,0,VALID,21.6095,VALID,80,VALID,0,
2012-04-26, 01:09:04,VALID,918.064,VALID,0,VALID,96.8631,VALID,0.107441,VALID,21.6306,VALID,80,VALID,0,
2012-04-26, 01:10:04,VALID,918.053,VALID,0,VALID,96.8631,VALID,0,VALID,21.6306,VALID,80,VALID,0,
2012-04-26, 01:11:04,VALID,918.009,VALID,0,VALID,96.8555,VALID,0,VALID,21.6485,VALID,80,VALID,0,
2012-04-26, 01:12:04,VALID,917.998,VALID,0,VALID,96.8631,VALID,0.107441,VALID,21.6891,VALID,80,VALID,0,
2012-04-26, 01:13:04,VALID,917.945,VALID,0,VALID,96.8936,VALID,0,VALID,21.7282,VALID,80,VALID,0,
2012-04-26, 01:14:04,VALID,917.95,VALID,0,VALID,96.8707,VALID,0,VALID,21.7265,VALID,80,VALID,0,
2012-04-26, 01:15:04,VALID,917.961,VALID,0,VALID,96.9012,VALID,0,VALID,21.7672,VALID,80,VALID,0,
2012-04-26, 01:16:04,VALID,917.92,VALID,0,VALID,96.9165,VALID,0,VALID,21.785,VALID,80,VALID,0,
2012-04-26, 01:17:04,VALID,917.909,VALID,0,VALID,96.8936,VALID,0,VALID,21.7867,VALID,80,VALID,0,
2012-04-26, 01:18:04,VALID,917.898,VALID,0,VALID,96.8555,VALID,0,VALID,21.7493,VALID,80,VALID,0,
2012-04-26, 01:19:04,VALID,917.894,VALID,0,VALID,96.8403,VALID,0,VALID,21.707,VALID,80,VALID,0,
2012-04-26, 01:20:04,VALID,917.874,VALID,0,VALID,96.8326,VALID,0,VALID,21.707,VALID,80,VALID,0,
2012-04-26, 01:21:04,VALID,917.865,VALID,0,VALID,96.8174,VALID,0,VALID,21.7087,VALID,80,VALID,0,
2012-04-26, 01:22:04,VALID,917.867,VALID,0,VALID,96.8326,VALID,0,VALID,21.6891,VALID,80,VALID,0,
2012-04-26, 01:23:04,VALID,917.845,VALID,0,VALID,96.8174,VALID,0,VALID,21.7087,VALID,80,VALID,0,
2012-04-26, 01:24:04,VALID,917.846,VALID,0,VALID,96.8174,VALID,0,VALID,21.6891,VALID,80,VALID,0,
2012-04-26, 01:25:04,VALID,917.868,VALID,0,VALID,96.8174,VALID,0,VALID,21.6713,VALID,80,VALID,0,
2012-04-26, 01:26:04,VALID,917.819,VALID,0,VALID,96.8403,VALID,0,VALID,21.6908,VALID,80,VALID,0,
2012-04-26, 01:27:04,VALID,917.838,VALID,0,VALID,96.8479,VALID,0,VALID,21.6908,VALID,80,VALID,0,
2012-04-26, 01:28:04,VALID,917.857,VALID,0,VALID,96.8403,VALID,0,VALID,21.6908,VALID,80,VALID,0,
2012-04-26, 01:29:04,VALID,917.839,VALID,0,VALID,96.825,VALID,0,VALID,21.6501,VALID,80,VALID,0,
2012-04-26, 01:30:04,VALID,917.835,VALID,0,VALID,96.8403,VALID,0,VALID,21.6696,VALID,80,VALID,0,
2012-04-26, 01:31:04,VALID,917.847,VALID,0,VALID,96.8403,VALID,0,VALID,21.7103,VALID,80,VALID,0,
2012-04-26, 01:32:04,VALID,917.834,VALID,0,VALID,96.825,VALID,0,VALID,21.6908,VALID,80,VALID,0,
2012-04-26, 01:33:04,VALID,917.842,VALID,0,VALID,96.7945,VALID,0,VALID,21.6306,VALID,80,VALID,0,
2012-04-26, 01:34:04,VALID,917.854,VALID,0,VALID,96.7869,VALID,0,VALID,21.6306,VALID,80,VALID,0,
2012-04-26, 01:35:04,VALID,917.838,VALID,0,VALID,96.7411,VALID,0,VALID,21.6323,VALID,80,VALID,0,
2012-04-26, 01:36:04,VALID,917.862,VALID,0,VALID,96.825,VALID,0,VALID,21.6323,VALID,80,VALID,0,
2012-04-26, 01:37:04,VALID,917.877,VALID,0,VALID,96.8021,VALID,0,VALID,21.6323,VALID,80,VALID,0,
2012-04-26, 01:38:04,VALID,917.87,VALID,0,VALID,96.8555,VALID,0,VALID,21.6908,VALID,80,VALID,0,
2012-04-26, 01:39:04,VALID,917.898,VALID,0,VALID,96.8707,VALID,0,VALID,21.7298,VALID,81,VALID,0,
2012-04-26, 01:40:04,VALID,917.905,VALID,0,VALID,96.8707,VALID,0,VALID,21.707,VALID,81,VALID,0,
2012-04-26, 01:41:04,VALID,917.913,VALID,0,VALID,96.8479,VALID,0,VALID,21.6501,VALID,81,VALID,0,
2012-04-26, 01:42:04,VALID,917.931,VALID,0,VALID,96.7716,VALID,0,VALID,21.6111,VALID,80,VALID,0,
2012-04-26, 01:43:04,VALID,917.95,VALID,0,VALID,96.6878,VALID,0,VALID,21.6111,VALID,81,VALID,0.610937,
2012-04-26, 01:44:04,VALID,917.94,VALID,0,VALID,96.6497,VALID,0.107441,VALID,21.5331,VALID,80,VALID,0.511328,
2012-04-26, 01:45:04,VALID,917.961,VALID,0,VALID,96.6878,VALID,0,VALID,21.4924,VALID,80,VALID,0.299609,
2012-04-26, 01:46:04,VALID,917.934,VALID,0.2,VALID,96.7488,VALID,0.107441,VALID,21.5331,VALID,80,VALID,0.053125,
2012-04-26, 01:47:04,VALID,917.898,VALID,0,VALID,96.6954,VALID,0,VALID,21.4941,VALID,80,VALID,0.336328,
2012-04-26, 01:48:04,VALID,917.896,VALID,0,VALID,96.7411,VALID,0,VALID,21.5136,VALID,80,VALID,0.358984,
2012-04-26, 01:49:04,VALID,917.871,VALID,0,VALID,96.7411,VALID,0,VALID,21.4941,VALID,80,VALID,0,
2012-04-26, 01:50:04,VALID,917.863,VALID,0,VALID,96.8098,VALID,0,VALID,21.5331,VALID,80,VALID,0,
2012-04-26, 01:51:04,VALID,917.844,VALID,0,VALID,96.7335,VALID,0,VALID,21.5331,VALID,80,VALID,0,
2012-04-26, 01:52:04,VALID,917.847,VALID,0,VALID,96.7335,VALID,0,VALID,21.5331,VALID,81,VALID,0,
2012-04-26, 01:53:04,VALID,917.827,VALID,0,VALID,96.7259,VALID,0,VALID,21.5119,VALID,81,VALID,0,
2012-04-26, 01:54:04,VALID,917.794,VALID,0,VALID,96.7564,VALID,0.107441,VALID,21.5721,VALID,80,VALID,0,
2012-04-26, 01:55:04,VALID,917.778,VALID,0,VALID,96.764,VALID,0,VALID,21.5737,VALID,80,VALID,0,
2012-04-26, 01:56:04,VALID,917.785,VALID,0,VALID,96.7869,VALID,0,VALID,21.5721,VALID,80,VALID,0,
2012-04-26, 01:57:04,VALID,917.78,VALID,0,VALID,96.6725,VALID,0,VALID,21.5737,VALID,81,VALID,0,
2012-04-26, 01:58:04,VALID,917.765,VALID,0,VALID,96.6344,VALID,0,VALID,21.5737,VALID,80,VALID,0,
2012-04-26, 01:59:04,VALID,917.788,VALID,0,VALID,96.703,VALID,0,VALID,21.5932,VALID,80,VALID,0,
2012-04-26, 02:00:04,VALID,917.743,VALID,0,VALID,96.6344,VALID,0,VALID,21.6128,VALID,80,VALID,0.151953,
2012-04-26, 02:01:04,VALID,917.735,VALID,0,VALID,96.5277,VALID,0,VALID,21.5737,VALID,80,VALID,0.255859,
2012-04-26, 02:02:04,VALID,917.726,VALID,0,VALID,96.5811,VALID,0,VALID,21.5542,VALID,80,VALID,0,
2012-04-26, 02:03:04,VALID,917.739,VALID,0,VALID,96.5734,VALID,0,VALID,21.4941,VALID,80,VALID,0,
2012-04-26, 02:04:04,VALID,917.717,VALID,0,VALID,96.5582,VALID,0,VALID,21.4746,VALID,80,VALID,0,
2012-04-26, 02:05:04,VALID,917.69,VALID,0,VALID,96.6039,VALID,0,VALID,21.4973,VALID,80,VALID,0,
2012-04-26, 02:06:04,VALID,917.714,VALID,0,VALID,96.6573,VALID,0,VALID,21.4957,VALID,80,VALID,0,
2012-04-26, 02:07:04,VALID,917.681,VALID,0,VALID,96.6725,VALID,0,VALID,21.4941,VALID,80,VALID,0,
2012-04-26, 02:08:04,VALID,917.682,VALID,0,VALID,96.6497,VALID,0,VALID,21.5152,VALID,80,VALID,0,
2012-04-26, 02:09:04,VALID,917.66,VALID,0,VALID,96.7107,VALID,0,VALID,21.5347,VALID,80,VALID,0,
2012-04-26, 02:10:04,VALID,917.632,VALID,0,VALID,96.7183,VALID,0,VALID,21.5347,VALID,80,VALID,0,
2012-04-26, 02:11:04,VALID,917.658,VALID,0,VALID,96.7107,VALID,0,VALID,21.5347,VALID,80,VALID,0,
2012-04-26, 02:12:04,VALID,917.628,VALID,0,VALID,96.7564,VALID,0,VALID,21.5136,VALID,80,VALID,0,
2012-04-26, 02:13:04,VALID,917.63,VALID,0,VALID,96.764,VALID,0,VALID,21.5542,VALID,80,VALID,0.0777344,
2012-04-26, 02:14:04,VALID,917.627,VALID,0,VALID,96.8326,VALID,0,VALID,21.6128,VALID,80,VALID,0,
2012-04-26, 02:15:04,VALID,917.596,VALID,0,VALID,96.7335,VALID,0,VALID,21.5721,VALID,80,VALID,0,
2012-04-26, 02:16:04,VALID,917.598,VALID,0,VALID,96.7716,VALID,0,VALID,21.5721,VALID,80,VALID,0,
2012-04-26, 02:17:04,VALID,917.584,VALID,0,VALID,96.7869,VALID,0,VALID,21.6323,VALID,80,VALID,0,
2012-04-26, 02:18:04,VALID,917.578,VALID,0,VALID,96.6115,VALID,0,VALID,21.5542,VALID,80,VALID,0.346094,
2012-04-26, 02:19:04,VALID,917.566,VALID,0,VALID,96.6649,VALID,0,VALID,21.5136,VALID,80,VALID,0.465234,
2012-04-26, 02:20:04,VALID,917.576,VALID,0,VALID,96.7183,VALID,0,VALID,21.5136,VALID,80,VALID,0,
2012-04-26, 02:21:04,VALID,917.583,VALID,0,VALID,96.7488,VALID,0,VALID,21.5737,VALID,80,VALID,0,
2012-04-26, 02:22:04,VALID,917.558,VALID,0,VALID,96.6725,VALID,0,VALID,21.5347,VALID,80,VALID,0,
2012-04-26, 02:23:04,VALID,917.531,VALID,0,VALID,96.6573,VALID,0,VALID,21.4941,VALID,80,VALID,0,
2012-04-26, 02:24:04,VALID,917.555,VALID,0,VALID,96.7183,VALID,0,VALID,21.4941,VALID,80,VALID,0,
2012-04-26, 02:25:04,VALID,917.563,VALID,0,VALID,96.6497,VALID,0.107441,VALID,21.4746,VALID,80,VALID,0,
2012-04-26, 02:26:04,VALID,917.567,VALID,0,VALID,96.6725,VALID,0,VALID,21.4746,VALID,80,VALID,0,
2012-04-26, 02:27:04,VALID,917.574,VALID,0,VALID,96.6878,VALID,0,VALID,21.4534,VALID,80,VALID,0,
2012-04-26, 02:28:04,VALID,917.593,VALID,0,VALID,96.6725,VALID,0,VALID,21.4746,VALID,80,VALID,0,
2012-04-26, 02:29:04,VALID,917.562,VALID,0,VALID,96.703,VALID,0,VALID,21.4746,VALID,80,VALID,0,
2012-04-26, 02:30:04,VALID,917.597,VALID,0,VALID,96.7411,VALID,0.107441,VALID,21.4534,VALID,80,VALID,0,
2012-04-26, 02:31:04,VALID,917.571,VALID,0,VALID,96.7259,VALID,0,VALID,21.4729,VALID,80,VALID,0,
2012-04-26, 02:32:04,VALID,917.569,VALID,0,VALID,96.6954,VALID,0.107441,VALID,21.455,VALID,80,VALID,0,
2012-04-26, 02:33:04,VALID,917.558,VALID,0,VALID,96.703,VALID,0,VALID,21.4746,VALID,80,VALID,0,
2012-04-26, 02:34:04,VALID,917.538,VALID,0,VALID,96.6802,VALID,0.107441,VALID,21.4746,VALID,80,VALID,0,
2012-04-26, 02:35:04,VALID,917.562,VALID,0,VALID,96.703,VALID,0,VALID,21.4339,VALID,80,VALID,0,
2012-04-26, 02:36:04,VALID,917.574,VALID,0,VALID,96.703,VALID,0,VALID,21.455,VALID,80,VALID,0,
2012-04-26, 02:37:04,VALID,917.568,VALID,0,VALID,96.7793,VALID,0.107441,VALID,21.4534,VALID,80,VALID,0,
2012-04-26, 02:38:04,VALID,917.56,VALID,0,VALID,96.7945,VALID,0.107441,VALID,21.5136,VALID,80,VALID,0,
2012-04-26, 02:39:04,VALID,917.574,VALID,0,VALID,96.7335,VALID,0.107441,VALID,21.4941,VALID,80,VALID,0,
2012-04-26, 02:40:04,VALID,917.562,VALID,0,VALID,96.703,VALID,0.107441,VALID,21.4729,VALID,80,VALID,0,
2012-04-26, 02:41:04,VALID,917.577,VALID,0,VALID,96.6954,VALID,0,VALID,21.4746,VALID,80,VALID,0,
2012-04-26, 02:42:04,VALID,917.581,VALID,0,VALID,96.7335,VALID,0,VALID,21.4941,VALID,80,VALID,0,
2012-04-26, 02:43:04,VALID,917.574,VALID,0,VALID,96.7183,VALID,0.107441,VALID,21.4534,VALID,80,VALID,0,
2012-04-26, 02:44:04,VALID,917.591,VALID,0,VALID,96.6954,VALID,0.107441,VALID,21.4746,VALID,80,VALID,0,
2012-04-26, 02:45:04,VALID,917.565,VALID,0,VALID,96.7259,VALID,0.107441,VALID,21.4355,VALID,80,VALID,0,
2012-04-26, 02:46:04,VALID,917.563,VALID,0,VALID,96.7183,VALID,0,VALID,21.4355,VALID,80,VALID,0,
2012-04-26, 02:47:04,VALID,917.568,VALID,0,VALID,96.7335,VALID,0.107441,VALID,21.455,VALID,80,VALID,0,
2012-04-26, 02:48:04,VALID,917.573,VALID,0,VALID,96.7564,VALID,0.107441,VALID,21.4339,VALID,80,VALID,0,
2012-04-26, 02:49:04,VALID,917.559,VALID,0,VALID,96.7259,VALID,0,VALID,21.4144,VALID,80,VALID,0,
2012-04-26, 02:50:04,VALID,917.501,VALID,0,VALID,96.7411,VALID,0.107441,VALID,21.4746,VALID,80,VALID,0.276953,
2012-04-26, 02:51:04,VALID,917.543,VALID,0,VALID,96.7488,VALID,0,VALID,21.4746,VALID,80,VALID,0.177344,
2012-04-26, 02:52:04,VALID,917.505,VALID,0,VALID,96.7259,VALID,0,VALID,21.4355,VALID,99,VALID,0,
2012-04-26, 02:53:04,VALID,917.487,VALID,0,VALID,96.6344,VALID,0.107441,VALID,21.3965,VALID,114,VALID,0,
2012-04-26, 02:54:04,VALID,917.505,VALID,0,VALID,96.6573,VALID,0,VALID,21.3559,VALID,114,VALID,0,
2012-04-26, 02:55:04,VALID,917.465,VALID,0,VALID,96.6725,VALID,0,VALID,21.3591,VALID,114,VALID,0,
2012-04-26, 02:56:04,VALID,917.464,VALID,0,VALID,96.6268,VALID,0,VALID,21.3201,VALID,114,VALID,0,
2012-04-26, 02:57:04,VALID,917.462,VALID,0,VALID,96.5811,VALID,0,VALID,21.2811,VALID,114,VALID,0,
2012-04-26, 02:58:04,VALID,917.461,VALID,0,VALID,96.6192,VALID,0,VALID,21.221,VALID,114,VALID,0,
2012-04-26, 02:59:04,VALID,917.479,VALID,0,VALID,96.6192,VALID,0,VALID,21.2226,VALID,114,VALID,0,
2012-04-26, 03:00:04,VALID,917.472,VALID,0,VALID,96.6344,VALID,0,VALID,21.1819,VALID,114,VALID,0,
2012-04-26, 03:01:04,VALID,917.483,VALID,0,VALID,96.7335,VALID,0,VALID,21.1819,VALID,114,VALID,0,
2012-04-26, 03:02:04,VALID,917.465,VALID,0,VALID,96.7869,VALID,0,VALID,21.2015,VALID,114,VALID,0,
2012-04-26, 03:03:04,VALID,917.442,VALID,0,VALID,96.8479,VALID,0,VALID,21.221,VALID,114,VALID,0,
2012-04-26, 03:04:04,VALID,917.44,VALID,0,VALID,96.7869,VALID,0,VALID,21.2616,VALID,114,VALID,0,
2012-04-26, 03:05:04,VALID,917.423,VALID,0,VALID,96.7183,VALID,0,VALID,21.2015,VALID,114,VALID,0,
2012-04-26, 03:06:04,VALID,917.431,VALID,0,VALID,96.6725,VALID,0,VALID,21.1819,VALID,114,VALID,0,
2012-04-26, 03:07:04,VALID,917.416,VALID,0,VALID,96.7716,VALID,0,VALID,21.2031,VALID,114,VALID,0,
2012-04-26, 03:08:04,VALID,917.421,VALID,0,VALID,96.7869,VALID,0,VALID,21.2226,VALID,114,VALID,0,
2012-04-26, 03:09:04,VALID,917.362,VALID,0,VALID,96.7335,VALID,0,VALID,21.2226,VALID,114,VALID,0,
2012-04-26, 03:10:04,VALID,917.368,VALID,0,VALID,96.8631,VALID,0,VALID,21.2405,VALID,114,VALID,0,
2012-04-26, 03:11:04,VALID,917.371,VALID,0,VALID,96.8555,VALID,0,VALID,21.3201,VALID,114,VALID,0,
2012-04-26, 03:12:04,VALID,917.377,VALID,0,VALID,96.7869,VALID,0.107441,VALID,21.2795,VALID,114,VALID,0,
2012-04-26, 03:13:04,VALID,917.357,VALID,0,VALID,96.7945,VALID,0.107441,VALID,21.299,VALID,114,VALID,0,
2012-04-26, 03:14:04,VALID,917.378,VALID,0,VALID,96.7793,VALID,0.107441,VALID,21.3803,VALID,114,VALID,0,
2012-04-26, 03:15:04,VALID,917.355,VALID,0,VALID,96.6954,VALID,0.107441,VALID,21.3591,VALID,114,VALID,0,
2012-04-26, 03:16:04,VALID,917.344,VALID,0,VALID,96.6725,VALID,0.107441,VALID,21.2779,VALID,114,VALID,0,
2012-04-26, 03:17:04,VALID,917.34,VALID,0,VALID,96.6573,VALID,0.107441,VALID,21.26,VALID,114,VALID,0,
2012-04-26, 03:18:04,VALID,917.332,VALID,0,VALID,96.7107,VALID,0,VALID,21.3022,VALID,114,VALID,0,
2012-04-26, 03:19:04,VALID,917.324,VALID,0,VALID,96.7335,VALID,0.107441,VALID,21.2584,VALID,114,VALID,0,
2012-04-26, 03:20:04,VALID,917.328,VALID,0,VALID,96.6725,VALID,0,VALID,21.3234,VALID,114,VALID,0,
2012-04-26, 03:21:04,VALID,917.339,VALID,0,VALID,96.7564,VALID,0.107441,VALID,21.2762,VALID,114,VALID,0,
2012-04-26, 03:22:04,VALID,917.314,VALID,0,VALID,96.6878,VALID,0.107441,VALID,21.3396,VALID,114,VALID,0,
2012-04-26, 03:23:04,VALID,917.321,VALID,0,VALID,96.7107,VALID,0,VALID,21.299,VALID,114,VALID,0,
2012-04-26, 03:24:04,VALID,917.305,VALID,0,VALID,96.7411,VALID,0.107441,VALID,21.2779,VALID,80,VALID,0,
2012-04-26, 03:25:04,VALID,917.297,VALID,0,VALID,96.8326,VALID,0,VALID,21.2584,VALID,25,VALID,0,
2012-04-26, 03:26:04,VALID,917.312,VALID,0,VALID,96.8707,VALID,0,VALID,21.3786,VALID,25,VALID,0.78125,
2012-04-26, 03:27:04,VALID,917.314,VALID,0,VALID,96.886,VALID,0,VALID,21.4177,VALID,25,VALID,1.00234,
2012-04-26, 03:28:04,VALID,917.305,VALID,0,VALID,96.8403,VALID,0,VALID,21.4193,VALID,40,VALID,0.871875,
2012-04-26, 03:29:04,VALID,917.289,VALID,0,VALID,96.7716,VALID,0,VALID,21.377,VALID,40,VALID,0.846484,
2012-04-26, 03:30:04,VALID,917.327,VALID,0,VALID,96.7793,VALID,0,VALID,21.3981,VALID,40,VALID,0.338672,
2012-04-26, 03:31:04,VALID,917.361,VALID,0,VALID,96.6954,VALID,0,VALID,21.3786,VALID,40,VALID,0,
2012-04-26, 03:32:04,VALID,917.351,VALID,0,VALID,96.6268,VALID,0,VALID,21.3201,VALID,40,VALID,0.0554687,
2012-04-26, 03:33:04,VALID,917.359,VALID,0,VALID,96.5658,VALID,0,VALID,21.3006,VALID,40,VALID,0.0347656,
2012-04-26, 03:34:04,VALID,917.37,VALID,0,VALID,96.5963,VALID,0,VALID,21.2811,VALID,40,VALID,0.096875,
2012-04-26, 03:35:04,VALID,917.386,VALID,0,VALID,96.6497,VALID,0,VALID,21.2795,VALID,40,VALID,0.273828,
2012-04-26, 03:36:04,VALID,917.393,VALID,0,VALID,96.6878,VALID,0,VALID,21.3201,VALID,37,VALID,0.648438,
2012-04-26, 03:37:04,VALID,917.378,VALID,0,VALID,96.703,VALID,0,VALID,21.299,VALID,15,VALID,0.567578,
2012-04-26, 03:38:04,VALID,917.401,VALID,0,VALID,96.6954,VALID,0,VALID,21.3591,VALID,15,VALID,0.667578,
2012-04-26, 03:39:04,VALID,917.388,VALID,0,VALID,96.6802,VALID,0,VALID,21.3591,VALID,15,VALID,0.681641,
2012-04-26, 03:40:04,VALID,917.416,VALID,0,VALID,96.6878,VALID,0,VALID,21.3396,VALID,15,VALID,0.600391,
2012-04-26, 03:41:04,VALID,917.383,VALID,0,VALID,96.5277,VALID,0,VALID,21.3006,VALID,15,VALID,0.946484,
2012-04-26, 03:42:04,VALID,917.414,VALID,0,VALID,96.5887,VALID,0,VALID,21.3006,VALID,15,VALID,0.641406,
2012-04-26, 03:43:04,VALID,917.378,VALID,0,VALID,96.5429,VALID,0,VALID,21.2616,VALID,15,VALID,0.661719,
2012-04-26, 03:44:04,VALID,917.389,VALID,0,VALID,96.5887,VALID,0,VALID,21.26,VALID,15,VALID,0.648047,
2012-04-26, 03:45:04,VALID,917.404,VALID,0,VALID,96.5429,VALID,0,VALID,21.2811,VALID,15,VALID,0.536719,
2012-04-26, 03:46:04,VALID,917.368,VALID,0,VALID,96.4743,VALID,0,VALID,21.2421,VALID,15,VALID,0.689844,
2012-04-26, 03:47:04,VALID,917.401,VALID,0,VALID,96.4896,VALID,0,VALID,21.1819,VALID,15,VALID,0.598437,
2012-04-26, 03:48:04,VALID,917.39,VALID,0,VALID,96.4896,VALID,0,VALID,21.2047,VALID,15,VALID,0.715625,
2012-04-26, 03:49:04,VALID,917.375,VALID,0,VALID,96.5048,VALID,0,VALID,21.164,VALID,15,VALID,0.708203,
2012-04-26, 03:50:04,VALID,917.359,VALID,0,VALID,96.6497,VALID,0,VALID,21.2031,VALID,15,VALID,0.792578,
2012-04-26, 03:51:04,VALID,917.364,VALID,0,VALID,96.6802,VALID,0,VALID,21.2226,VALID,15,VALID,0.780078,
2012-04-26, 03:52:04,VALID,917.349,VALID,0,VALID,96.6802,VALID,0,VALID,21.2421,VALID,15,VALID,1.04688,
2012-04-26, 03:53:04,VALID,917.33,VALID,0,VALID,96.6725,VALID,0,VALID,21.2421,VALID,16,VALID,0.866406,
2012-04-26, 03:54:04,VALID,917.348,VALID,0,VALID,96.7183,VALID,0,VALID,21.3006,VALID,17,VALID,0.891797,